Wind_Speed
20 29 44 55 59 58 57 56 54 50 47 44 41 40 38 34 31 28 25 22 18 16 14 13 12 10 10 9 8 8 9 10 12 14 16 18 19 20 23 26 30 33 36 38
32 47 57 59 59 58 54 51 47 44 41 40 39 36 33 30 25 23 21 20 20 19 18 16 14 14 15 13 12 12 12 11 11 12 14 16 18 20 22 24 26 31 35 39
43 57 57 58 56 54 50 45 42 39 38 38 32 30 27 25 23 22 20 19 18 18 17 15 15 17 16 16 16 17 15 15 13 11 16 17 20 23 25 26 29 31 34 36
53 57 56 55 52 51 44 40 41 40 37 32 29 27 25 24 23 20 18 16 16 15 16 17 18 19 19 17 19 17 18 18 16 13 14 17 20 23 26 28 29 31 33 37
55 53 56 54 50 44 42 42 41 37 34 29 27 24 24 23 20 16 15 13 11 12 14 17 20 20 20 20 19 17 18 19 18 15 14 18 21 24 27 29 31 33 37 42
54 54 53 51 47 44 43 42 38 34 29 27 23 22 21 19 17 13 11 9 8 10 13 17 21 21 20 19 19 17 20 21 20 17 15 18 21 23 26 29 30 36 39 43
55 53 51 49 46 44 43 40 34 30 29 24 23 21 18 16 14 10 7 5 5 8 13 17 20 21 20 19 18 16 21 24 24 20 16 19 24 28 31 32 36 40 44 47
56 52 49 46 46 45 41 36 31 29 26 22 21 19 16 13 11 8 5 2 2 6 12 17 20 23 22 21 20 18 23 23 26 23 22 28 35 37 36 40 45 48 50 51
56 51 49 48 46 41 39 34 29 27 25 22 21 19 16 14 11 8 5 4 4 9 12 17 22 25 23 23 22 21 23 25 26 26 29 30 41 38 44 44 47 52 55 58
55 52 49 47 44 42 37 31 29 27 24 22 21 18 16 14 12 10 8 7 7 11 12 18 22 25 24 22 26 27 27 29 34 35 36 37 40 43 48 50 53 55 59 59
56 54 51 45 45 39 34 32 31 29 28 26 23 19 17 15 14 12 10 11 12 15 16 19 23 25 27 24 28 31 32 33 33 36 36 40 45 46 50 52 58 59 62 62
55 53 47 46 42 39 37 36 36 34 32 28 24 21 19 17 17 16 16 17 18 19 19 20 25 27 29 28 28 32 35 36 38 42 44 46 49 51 52 59 61 65 64 67
57 54 49 45 41 40 39 41 39 34 28 24 22 26 20 20 21 19 19 20 20 21 22 24 28 31 31 30 31 34 38 41 45 48 51 52 54 56 57 63 66 69 68 70
61 55 51 50 47 45 44 41 37 32 29 30 27 25 22 24 20 20 22 23 23 25 25 27 31 33 32 34 36 38 39 42 46 48 54 56 59 60 63 65 69 72 71 72
63 59 57 56 52 50 48 42 39 35 36 31 34 29 32 30 21 24 28 27 27 28 31 32 35 36 34 37 38 39 40 40 43 47 54 58 61 65 66 69 73 76 75 74
66 62 60 59 55 53 49 43 39 37 38 38 37 36 41 34 32 34 34 34 36 35 36 36 40 41 39 40 43 44 48 46 47 48 52 57 62 67 71 74 76 80 78 79
69 67 64 62 61 58 48 45 44 42 40 44 40 50 42 42 41 39 35 41 42 42 43 44 47 46 46 48 49 52 53 50 51 50 55 59 64 69 73 74 76 76 80 79
73 71 69 66 65 59 49 50 49 47 47 48 47 54 55 54 47 42 44 44 45 47 48 50 49 50 52 53 55 57 56 54 55 55 55 60 66 70 72 74 78 79 81 82
77 77 73 71 67 61 55 50 52 53 51 51 51 54 58 57 54 47 54 50 49 49 52 53 53 53 55 58 61 61 60 59 59 57 58 61 64 73 78 78 82 85 87 88
83 83 81 76 71 64 58 58 59 58 52 60 59 60 64 62 56 55 59 54 54 56 56 55 56 59 61 63 64 64 63 63 62 60 62 64 71 76 80 83 87 88 90 94
88 90 86 82 78 71 66 65 66 64 62 70 67 67 66 63 62 61 63 62 61 61 61 62 64 65 67 68 68 69 68 69 68 67 68 72 78 81 85 88 90 92 94 97
94 93 92 89 86 76 70 69 67 71 77 76 74 72 72 69 68 67 67 68 68 68 67 69 71 73 73 74 74 74 74 74 73 73 76 80 83 89 92 93 95 96 99 102
102 95 96 95 87 82 80 79 78 79 78 78 78 78 76 76 75 72 72 73 74 74 75 77 78 78 78 79 79 79 79 78 77 78 81 87 91 94 96 97 98 101 102 107
108 105 105 103 92 89 88 86 85 83 84 85 84 83 83 82 81 79 79 79 80 81 83 85 85 84 83 83 83 83 82 82 83 85 89 94 97 98 99 101 102 104 106 110
112 113 105 103 99 97 94 90 89 90 89 90 90 88 88 85 85 85 85 85 86 87 88 89 89 89 87 87 87 88 87 88 90 93 97 99 101 103 104 105 109 110 113 114
115 109 112 102 104 103 101 98 97 96 94 94 94 93 91 90 91 91 91 90 90 91 92 93 93 92 91 91 91 93 95 96 98 100 102 105 106 106 108 113 114 116 117 119
Wind_Direction
171 155 146 145 142 141 141 140 139 137 136 135 136 138 138 135 130 122 118 119 112 105 105 99 87 72 58 50 40 32 33 35 36 36 37 33 33 32 31 29 25 23 22 23
154 147 148 146 146 146 144 141 140 141 141 143 143 140 137 133 124 122 115 104 92 87 83 76 64 55 51 47 35 23 9 2 9 16 17 20 18 20 19 16 12 13 13 13
154 151 151 151 152 148 144 145 146 145 144 146 143 142 135 127 125 122 110 97 85 77 68 55 47 43 37 33 28 22 17 6 353 356 7 9 7 8 6 6 6 5 5 7
155 154 155 155 154 150 151 154 152 154 152 149 146 136 130 128 129 119 107 96 84 71 60 45 36 29 22 21 20 13 13 3 359 350 357 359 359 0 359 359 359 359 360 360
158 157 157 158 153 155 161 159 162 157 154 151 139 136 135 135 130 120 113 99 84 63 43 31 24 18 14 16 20 9 4 3 2 355 348 352 352 356 355 355 355 355 356 357
162 162 163 162 163 167 169 167 164 161 157 154 148 142 141 141 131 126 117 102 74 43 30 21 16 11 9 12 16 9 1 3 1 355 349 350 349 345 349 350 350 351 352 352
167 167 167 168 171 175 174 171 170 164 164 158 152 154 150 145 143 146 135 115 53 25 10 3 2 358 355 358 6 8 3 360 358 359 354 348 345 343 344 344 345 346 347 347
171 171 173 176 180 181 177 174 173 169 168 169 167 164 166 166 169 170 171 160 5 348 346 342 344 346 347 351 358 4 357 358 353 349 350 355 354 352 347 343 342 344 343 343
175 178 180 183 187 185 181 181 177 177 179 181 179 179 178 180 191 200 218 257 291 326 327 330 333 339 341 344 348 351 346 352 357 353 346 344 345 344 349 346 345 344 343 341
181 185 188 189 192 187 188 187 184 184 190 193 192 189 188 194 204 221 236 266 292 313 314 322 327 332 330 329 328 334 341 341 343 345 345 348 347 345 346 345 343 344 344 342
188 190 193 196 193 193 191 192 190 195 199 199 199 198 203 212 223 236 257 275 286 297 308 315 320 320 322 312 313 321 331 334 336 339 341 345 345 341 341 340 345 345 344 342
195 197 200 199 198 196 197 196 198 199 202 205 207 210 215 225 239 248 261 271 284 293 303 309 312 314 316 310 309 312 315 322 326 328 329 336 336 335 336 337 342 345 342 342
200 203 206 207 200 201 204 204 206 206 206 213 217 223 224 244 253 255 257 269 282 291 294 301 303 308 314 310 307 309 315 319 320 322 324 327 327 329 333 338 339 341 340 340
205 208 209 208 202 207 211 212 216 212 220 228 232 231 240 252 258 261 267 272 281 288 293 300 300 307 318 314 309 309 312 316 316 317 317 320 321 326 333 339 340 341 338 338
210 214 212 209 208 212 218 217 219 220 229 237 245 249 246 251 255 264 266 272 276 286 295 298 303 303 312 315 312 311 314 315 314 313 312 315 318 323 328 334 337 335 335 334
214 215 216 213 215 218 221 225 226 232 241 248 250 255 254 254 261 266 265 273 280 290 293 299 299 302 306 309 313 312 315 312 312 310 310 313 314 319 323 328 330 331 330 331
216 216 218 216 220 221 221 231 235 237 243 249 253 253 259 258 254 261 272 271 279 287 293 298 297 301 303 309 311 313 315 313 312 308 307 310 312 316 321 326 328 326 326 327
218 218 219 220 224 222 223 235 238 241 244 250 251 257 259 261 259 266 272 273 278 286 291 293 297 299 301 304 306 308 311 310 310 309 311 310 314 314 318 324 325 324 324 325
220 219 220 224 227 225 226 235 245 242 246 253 256 260 263 263 265 266 268 277 281 284 286 294 297 297 298 301 304 306 308 308 308 309 309 310 310 313 320 320 321 321 322 324
222 222 223 224 227 229 230 235 246 247 246 257 254 257 261 263 270 271 273 277 280 283 288 293 294 294 296 299 302 307 307 306 306 305 307 307 307 314 318 317 318 321 323 324
225 225 226 226 228 229 233 236 243 249 251 255 255 257 262 267 269 272 275 277 278 280 283 288 291 293 294 298 302 305 304 303 304 305 307 306 307 314 314 315 318 321 322 325
226 228 229 229 229 230 236 241 247 249 252 256 261 263 264 267 269 270 273 276 278 279 282 285 287 289 293 297 302 303 302 302 302 305 306 305 308 312 314 316 317 319 320 323
225 228 231 232 232 234 236 239 243 248 252 257 260 263 264 266 268 271 273 276 278 279 281 283 285 289 293 297 299 301 302 302 303 304 302 307 309 311 313 314 316 317 319 322
226 228 230 231 232 235 237 239 243 248 252 255 258 262 266 268 269 271 274 277 277 278 278 281 284 288 291 294 297 299 300 300 301 300 304 307 309 310 311 313 314 317 318 320
228 229 232 233 233 236 239 243 245 247 251 255 259 262 265 269 271 273 275 276 277 277 278 280 283 286 290 293 294 297 297 298 299 301 304 307 308 308 310 311 312 314 316 319
230 232 234 234 236 239 240 242 244 247 251 254 258 261 263 265 267 270 272 273 274 276 277 279 282 285 288 291 293 294 295 297 299 302 303 306 306 307 308 310 311 313 316 318
Height
10871 10873 10878 10882 10886 10892 10897 10900 10905 10909 10914 10918 10921 10923 10926 10929 10931 10933 10934 10935 10937 10936 10936 10936 10935 10934 10932 10931 10929 10927 10924 10922 10919 10916 10913 10910 10907 10902 10899 10894 10889 10883 10878 10873
10873 10876 10882 10887 10890 10895 10900 10905 10910 10914 10917 10921 10924 10927 10928 10931 10933 10934 10936 10937 10937 10937 10937 10936 10935 10934 10932 10930 10928 10925 10922 10920 10918 10915 10912 10908 10905 10901 10898 10893 10887 10882 10875 10869
10876 10880 10885 10890 10894 10899 10904 10908 10912 10916 10919 10923 10926 10929 10931 10933 10934 10936 10937 10937 10938 10937 10937 10936 10935 10933 10931 10929 10926 10923 10920 10918 10915 10913 10910 10907 10903 10899 10895 10890 10884 10879 10873 10867
10880 10883 10888 10893 10897 10902 10907 10911 10914 10917 10920 10924 10928 10931 10932 10934 10936 10937 10938 10937 10937 10937 10936 10935 10934 10931 10929 10927 10925 10921 10918 10915 10912 10910 10908 10905 10901 10897 10892 10887 10881 10875 10869 10863
10882 10886 10890 10895 10899 10904 10907 10911 10914 10918 10922 10926 10928 10931 10933 10934 10936 10937 10937 10937 10937 10936 10936 10934 10933 10930 10928 10925 10922 10919 10916 10913 10910 10907 10905 10902 10899 10895 10890 10884 10879 10873 10867 10860
10882 10887 10891 10896 10900 10904 10907 10910 10914 10918 10922 10926 10928 10931 10932 10934 10934 10935 10936 10936 10936 10935 10934 10933 10931 10929 10926 10923 10920 10917 10914 10911 10907 10904 10902 10899 10895 10891 10885 10880 10876 10870 10863 10855
10881 10886 10891 10895 10899 10902 10906 10911 10915 10918 10922 10925 10927 10929 10931 10932 10933 10934 10934 10934 10934 10934 10932 10930 10929 10927 10924 10921 10918 10915 10912 10908 10904 10901 10898 10894 10890 10886 10882 10876 10871 10865 10858 10851
10879 10884 10890 10894 10898 10901 10905 10910 10914 10917 10921 10924 10926 10928 10929 10930 10931 10931 10932 10932 10932 10932 10930 10928 10926 10924 10921 10918 10915 10913 10909 10905 10901 10898 10894 10891 10886 10881 10876 10871 10864 10859 10852 10845
10877 10882 10887 10892 10895 10900 10904 10908 10911 10915 10918 10921 10923 10925 10927 10928 10929 10929 10929 10929 10929 10929 10927 10924 10922 10919 10917 10914 10911 10909 10905 10902 10898 10895 10891 10886 10882 10876 10871 10865 10858 10852 10845 10837
10874 10880 10884 10888 10893 10897 10901 10905 10908 10912 10915 10917 10920 10921 10923 10924 10925 10925 10925 10926 10926 10925 10923 10920 10918 10915 10913 10910 10907 10904 10901 10897 10893 10889 10885 10880 10875 10869 10863 10858 10851 10844 10837 10830
10869 10874 10879 10885 10889 10894 10898 10901 10905 10907 10910 10913 10915 10917 10919 10920 10921 10922 10922 10922 10921 10920 10919 10916 10913 10910 10908 10905 10901 10898 10894 10890 10886 10882 10878 10874 10868 10862 10856 10850 10844 10837 10829 10821
10865 10871 10876 10881 10886 10890 10894 10897 10900 10902 10906 10909 10910 10913 10914 10915 10916 10917 10917 10917 10916 10915 10914 10911 10908 10905 10903 10899 10895 10891 10887 10883 10879 10875 10870 10866 10860 10855 10848 10842 10835 10828 10820 10811
10861 10868 10871 10876 10882 10885 10887 10890 10893 10898 10902 10905 10907 10907 10910 10911 10910 10910 10910 10910 10910 10908 10907 10905 10902 10899 10896 10892 10888 10884 10880 10876 10871 10866 10860 10856 10850 10845 10839 10833 10826 10818 10809 10800
10852 10858 10865 10867 10872 10876 10880 10884 10889 10893 10897 10896 10899 10900 10903 10903 10903 10903 10903 10903 10902 10900 10899 10897 10894 10892 10889 10885 10880 10876 10873 10868 10863 10857 10850 10845 10839 10835 10829 10822 10814 10807 10798 10789
10846 10849 10852 10856 10863 10868 10873 10878 10882 10886 10887 10891 10890 10893 10892 10894 10896 10896 10895 10894 10894 10892 10891 10889 10885 10882 10880 10877 10872 10869 10865 10860 10854 10849 10842 10835 10828 10822 10816 10810 10803 10795 10787 10777
10835 10840 10844 10850 10855 10860 10866 10871 10876 10880 10881 10880 10882 10884 10879 10885 10887 10886 10886 10885 10883 10883 10882 10880 10876 10873 10871 10868 10863 10859 10854 10850 10844 10839 10832 10827 10818 10811 10805 10798 10789 10782 10773 10763
10823 10829 10832 10840 10844 10850 10861 10866 10867 10869 10871 10869 10876 10862 10872 10873 10874 10875 10877 10873 10872 10872 10870 10868 10865 10862 10859 10856 10853 10849 10844 10839 10833 10828 10821 10816 10808 10801 10793 10786 10779 10770 10760 10750
10811 10816 10820 10828 10831 10843 10856 10851 10855 10859 10860 10861 10861 10851 10855 10857 10865 10868 10865 10862 10862 10860 10859 10856 10854 10852 10849 10845 10842 10838 10833 10828 10822 10815 10810 10803 10796 10788 10781 10774 10766 10757 10747 10736
10796 10800 10808 10813 10821 10834 10843 10845 10842 10845 10849 10849 10850 10841 10835 10844 10851 10858 10848 10852 10850 10848 10845 10844 10842 10840 10837 10832 10828 10824 10819 10814 10808 10802 10796 10790 10783 10775 10768 10760 10751 10741 10730 10720
10783 10787 10791 10801 10808 10820 10831 10830 10828 10831 10841 10825 10828 10828 10824 10832 10840 10838 10833 10840 10838 10834 10832 10830 10828 10824 10822 10819 10814 10810 10804 10799 10793 10788 10782 10776 10769 10763 10754 10746 10735 10726 10715 10702
10760 10768 10778 10785 10791 10806 10813 10815 10815 10818 10821 10800 10814 10815 10817 10822 10824 10824 10820 10823 10823 10820 10817 10815 10813 10810 10806 10803 10800 10795 10789 10783 10777 10772 10768 10761 10753 10747 10739 10729 10721 10711 10699 10687
10742 10748 10758 10768 10776 10792 10803 10803 10806 10795 10785 10792 10796 10801 10804 10806 10808 10809 10808 10806 10806 10805 10802 10799 10795 10793 10791 10787 10784 10779 10774 10769 10763 10757 10751 10743 10737 10730 10722 10713 10702 10693 10682 10670
10718 10738 10739 10746 10771 10776 10779 10780 10778 10775 10778 10777 10780 10782 10786 10788 10790 10794 10794 10793 10790 10788 10784 10780 10777 10777 10775 10772 10767 10762 10756 10750 10745 10740 10733 10727 10718 10711 10704 10694 10684 10674 10664 10652
10697 10706 10711 10720 10751 10754 10756 10761 10762 10761 10761 10759 10761 10765 10767 10770 10774 10775 10776 10775 10772 10769 10765 10761 10759 10758 10757 10754 10749 10744 10739 10732 10726 10720 10714 10708 10699 10691 10682 10675 10667 10657 10646 10633
10677 10678 10700 10711 10727 10731 10736 10742 10743 10741 10742 10743 10743 10748 10751 10754 10754 10755 10755 10754 10751 10748 10745 10742 10740 10740 10739 10736 10730 10725 10719 10713 10708 10702 10695 10688 10680 10671 10662 10653 10644 10636 10625 10614
10655 10682 10673 10705 10705 10707 10711 10713 10716 10721 10724 10724 10725 10728 10731 10734 10732 10733 10733 10733 10731 10728 10725 10722 10721 10721 10720 10717 10714 10707 10701 10696 10690 10682 10674 10667 10659 10650 10643 10633 10621 10612 10602 10591